Time,TemperatureF,DewpointF,PressureIn,WindDirection,WindDirectionDegrees,WindSpeedMPH,WindSpeedGustMPH,Humidity,HourlyPrecipIn,Conditions,Clouds,dailyrainin,SoftwareType,DateUTC
2013-03-08 00:00:00,33.5,28.6,30.40,ENE,78,0.0,0.0,82,0.00,,,0.00,Wunderground v.1.15,2013-03-08 05:00:00,
2013-03-08 00:04:00,33.5,28.6,30.39,ENE,78,0.0,0.0,82,0.00,,,0.00,Wunderground v.1.15,2013-03-08 05:04:00,
2013-03-08 00:06:00,33.5,28.6,30.39,ENE,78,0.0,0.0,82,0.00,,,0.00,Wunderground v.1.15,2013-03-08 05:06:00,
2013-03-08 00:08:00,33.4,28.5,30.39,ENE,78,0.0,0.0,82,0.00,,,0.00,Wunderground v.1.15,2013-03-08 05:08:00,
2013-03-08 00:14:00,33.4,28.5,30.39,ENE,78,0.0,0.0,82,0.00,,,0.00,Wunderground v.1.15,2013-03-08 05:14:00,
2013-03-08 00:20:00,33.3,28.4,30.39,ENE,78,0.0,0.0,82,0.00,,,0.00,Wunderground v.1.15,2013-03-08 05:20:00,
2013-03-08 00:26:00,33.2,28.6,30.39,ENE,78,0.0,0.0,83,0.00,,,0.00,Wunderground v.1.15,2013-03-08 05:26:00,
2013-03-08 00:32:00,33.1,28.5,30.39,ENE,78,0.0,0.0,83,0.00,,,0.00,Wunderground v.1.15,2013-03-08 05:32:00,
2013-03-08 00:38:00,33.0,28.4,30.40,ENE,78,0.0,0.0,83,0.00,,,0.00,Wunderground v.1.15,2013-03-08 05:38:00,
2013-03-08 00:44:00,33.0,28.4,30.40,ENE,78,0.0,0.0,83,0.00,,,0.00,Wunderground v.1.15,2013-03-08 05:44:00,
2013-03-08 00:50:00,32.9,28.3,30.39,ENE,78,0.0,0.0,83,0.00,,,0.00,Wunderground v.1.15,2013-03-08 05:50:00,
2013-03-08 00:56:00,32.9,28.3,30.39,ENE,78,0.0,0.0,83,0.00,,,0.00,Wunderground v.1.15,2013-03-08 05:56:00,
2013-03-08 01:02:00,32.8,28.2,30.39,ENE,78,0.0,0.0,83,0.00,,,0.00,Wunderground v.1.15,2013-03-08 06:02:00,
2013-03-08 01:08:00,32.7,28.1,30.39,ENE,78,0.0,0.0,83,0.00,,,0.00,Wunderground v.1.15,2013-03-08 06:08:00,
2013-03-08 01:14:00,32.5,27.9,30.40,ENE,78,0.0,0.0,83,0.00,,,0.00,Wunderground v.1.15,2013-03-08 06:14:00,
2013-03-08 01:20:00,32.3,28.0,30.39,ENE,77,0.0,0.0,84,0.00,,,0.00,Wunderground v.1.15,2013-03-08 06:20:00,
2013-03-08 01:26:00,32.2,27.9,30.40,ENE,78,0.0,0.0,84,0.00,,,0.00,Wunderground v.1.15,2013-03-08 06:26:00,
2013-03-08 01:32:00,32.2,27.9,30.40,ENE,78,0.0,0.0,84,0.00,,,0.00,Wunderground v.1.15,2013-03-08 06:32:00,
2013-03-08 01:38:00,32.1,27.8,30.40,ENE,78,0.0,0.0,84,0.00,,,0.00,Wunderground v.1.15,2013-03-08 06:38:00,
2013-03-08 01:44:00,32.2,27.9,30.40,ENE,78,0.0,0.0,84,0.00,,,0.00,Wunderground v.1.15,2013-03-08 06:44:00,
2013-03-08 01:50:00,32.1,28.1,30.40,ENE,78,0.0,0.0,85,0.00,,,0.00,Wunderground v.1.15,2013-03-08 06:50:00,
2013-03-08 01:56:00,32.1,27.8,30.40,ENE,78,0.0,0.0,84,0.00,,,0.00,Wunderground v.1.15,2013-03-08 06:56:00,
2013-03-08 02:02:00,32.1,28.1,30.41,ENE,78,0.0,0.0,85,0.00,,,0.00,Wunderground v.1.15,2013-03-08 07:02:00,
2013-03-08 02:08:00,32.1,28.1,30.42,ENE,78,0.0,0.0,85,0.00,,,0.00,Wunderground v.1.15,2013-03-08 07:08:00,
2013-03-08 02:14:00,32.2,28.5,30.42,ENE,78,0.0,0.0,86,0.00,,,0.01,Wunderground v.1.15,2013-03-08 07:14:00,
2013-03-08 02:20:00,32.2,28.2,30.41,ENE,78,0.0,0.0,85,0.00,,,0.01,Wunderground v.1.15,2013-03-08 07:20:00,
2013-03-08 02:26:00,32.3,28.3,30.41,ENE,78,0.0,0.0,85,0.00,,,0.01,Wunderground v.1.15,2013-03-08 07:26:00,
2013-03-08 02:32:00,32.3,28.3,30.41,ENE,78,0.0,0.0,85,0.00,,,0.01,Wunderground v.1.15,2013-03-08 07:32:00,
2013-03-08 02:38:00,32.1,28.1,30.41,ENE,78,0.0,0.0,85,0.00,,,0.01,Wunderground v.1.15,2013-03-08 07:38:00,
2013-03-08 02:44:00,32.3,28.3,30.41,ENE,78,0.0,2.0,85,0.00,,,0.01,Wunderground v.1.15,2013-03-08 07:44:00,
2013-03-08 02:50:00,32.2,28.2,30.41,ENE,78,0.0,0.0,85,0.00,,,0.01,Wunderground v.1.15,2013-03-08 07:50:00,
2013-03-08 02:56:00,32.1,28.4,30.41,ENE,78,0.0,0.0,86,0.00,,,0.01,Wunderground v.1.15,2013-03-08 07:56:00,
2013-03-08 03:02:00,32.0,28.0,30.41,ENE,78,0.0,0.0,85,0.00,,,0.01,Wunderground v.1.15,2013-03-08 08:02:00,
2013-03-08 03:08:00,32.0,28.3,30.41,ENE,78,0.0,0.0,86,0.00,,,0.01,Wunderground v.1.15,2013-03-08 08:08:00,
2013-03-08 03:14:00,32.0,28.3,30.41,ENE,78,0.0,1.0,86,0.00,,,0.01,Wunderground v.1.15,2013-03-08 08:14:00,
2013-03-08 03:20:00,31.9,28.2,30.41,ENE,78,0.0,0.0,86,0.00,,,0.01,Wunderground v.1.15,2013-03-08 08:20:00,
2013-03-08 03:26:00,31.9,28.2,30.41,ENE,78,0.0,0.0,86,0.00,,,0.01,Wunderground v.1.15,2013-03-08 08:26:00,
2013-03-08 03:32:00,31.9,28.2,30.41,ENE,78,0.0,0.0,86,0.00,,,0.01,Wunderground v.1.15,2013-03-08 08:32:00,
2013-03-08 03:38:00,31.9,28.2,30.42,ENE,78,0.0,0.0,86,0.00,,,0.01,Wunderground v.1.15,2013-03-08 08:38:00,
2013-03-08 03:44:00,31.7,28.3,30.42,ENE,78,0.0,0.0,87,0.00,,,0.01,Wunderground v.1.15,2013-03-08 08:44:00,
2013-03-08 03:50:00,31.6,28.2,30.42,ENE,78,0.0,0.0,87,0.00,,,0.01,Wunderground v.1.15,2013-03-08 08:50:00,
2013-03-08 03:56:00,31.7,28.0,30.42,ENE,78,0.0,0.0,86,0.00,,,0.01,Wunderground v.1.15,2013-03-08 08:56:00,
2013-03-08 04:02:00,31.8,28.4,30.42,ENE,78,0.0,0.0,87,0.00,,,0.01,Wunderground v.1.15,2013-03-08 09:02:00,
2013-03-08 04:08:00,31.7,28.0,30.42,ENE,78,0.0,0.0,86,0.00,,,0.01,Wunderground v.1.15,2013-03-08 09:08:00,
2013-03-08 04:14:00,31.6,28.2,30.42,ENE,78,0.0,0.0,87,0.00,,,0.01,Wunderground v.1.15,2013-03-08 09:14:00,
2013-03-08 04:20:00,31.4,28.0,30.42,ENE,78,0.0,0.0,87,0.00,,,0.01,Wunderground v.1.15,2013-03-08 09:20:00,
2013-03-08 04:26:00,31.4,27.7,30.42,ENE,78,0.0,0.0,86,0.00,,,0.01,Wunderground v.1.15,2013-03-08 09:26:00,
2013-03-08 04:32:00,31.2,27.5,30.42,ENE,78,0.0,0.0,86,0.00,,,0.01,Wunderground v.1.15,2013-03-08 09:32:00,
2013-03-08 04:38:00,31.0,27.3,30.42,ENE,78,0.0,0.0,86,0.00,,,0.01,Wunderground v.1.15,2013-03-08 09:38:00,
2013-03-08 04:44:00,30.8,27.1,30.42,ENE,78,0.0,0.0,86,0.00,,,0.01,Wunderground v.1.15,2013-03-08 09:44:00,
2013-03-08 04:50:00,30.5,26.8,30.42,ENE,78,0.0,0.0,86,0.00,,,0.01,Wunderground v.1.15,2013-03-08 09:50:00,
2013-03-08 04:56:00,30.2,26.8,30.42,ENE,78,0.0,0.0,87,0.00,,,0.01,Wunderground v.1.15,2013-03-08 09:56:00,
2013-03-08 05:02:00,29.9,26.8,30.42,ENE,78,0.0,0.0,88,0.00,,,0.01,Wunderground v.1.15,2013-03-08 10:02:00,
2013-03-08 05:08:00,29.8,26.7,30.42,ENE,78,0.0,0.0,88,0.00,,,0.01,Wunderground v.1.15,2013-03-08 10:08:00,
2013-03-08 05:14:00,29.6,26.5,30.42,ENE,78,0.0,0.0,88,0.00,,,0.01,Wunderground v.1.15,2013-03-08 10:14:00,
2013-03-08 05:20:00,29.3,26.2,30.42,ENE,78,0.0,0.0,88,0.00,,,0.01,Wunderground v.1.15,2013-03-08 10:20:00,
2013-03-08 05:26:00,29.0,26.2,30.43,ENE,78,0.0,0.0,89,0.00,,,0.01,Wunderground v.1.15,2013-03-08 10:26:00,
2013-03-08 05:32:00,28.9,26.3,30.42,ENE,78,0.0,0.0,90,0.00,,,0.01,Wunderground v.1.15,2013-03-08 10:32:00,
2013-03-08 05:38:00,28.8,26.2,30.42,ENE,78,0.0,0.0,90,0.00,,,0.01,Wunderground v.1.15,2013-03-08 10:38:00,
2013-03-08 05:44:00,28.6,26.0,30.42,ENE,78,0.0,0.0,90,0.00,,,0.01,Wunderground v.1.15,2013-03-08 10:44:00,
2013-03-08 05:50:00,28.3,25.7,30.41,ENE,78,0.0,0.0,90,0.00,,,0.01,Wunderground v.1.15,2013-03-08 10:50:00,
2013-03-08 05:56:00,28.2,25.9,30.41,ENE,78,0.0,0.0,91,0.00,,,0.01,Wunderground v.1.15,2013-03-08 10:56:00,
2013-03-08 06:02:00,28.3,26.3,30.42,ENE,78,0.0,0.0,92,0.00,,,0.01,Wunderground v.1.15,2013-03-08 11:02:00,
2013-03-08 06:08:00,28.4,26.4,30.42,ENE,78,0.0,0.0,92,0.00,,,0.01,Wunderground v.1.15,2013-03-08 11:08:00,
2013-03-08 06:14:00,28.7,26.7,30.43,ENE,78,0.0,1.0,92,0.00,,,0.01,Wunderground v.1.15,2013-03-08 11:14:00,
2013-03-08 06:20:00,28.8,26.5,30.43,ENE,78,0.0,0.0,91,0.00,,,0.01,Wunderground v.1.15,2013-03-08 11:20:00,
2013-03-08 06:26:00,28.8,26.5,30.42,ENE,78,0.0,0.0,91,0.00,,,0.01,Wunderground v.1.15,2013-03-08 11:26:00,
2013-03-08 06:32:00,28.9,26.3,30.43,ENE,78,0.0,0.0,90,0.00,,,0.01,Wunderground v.1.15,2013-03-08 11:32:00,
2013-03-08 06:38:00,28.8,26.2,30.43,ENE,78,0.0,0.0,90,0.00,,,0.01,Wunderground v.1.15,2013-03-08 11:38:00,
2013-03-08 06:44:00,28.8,26.2,30.43,ENE,78,0.0,0.0,90,0.00,,,0.01,Wunderground v.1.15,2013-03-08 11:44:00,
2013-03-08 06:50:00,28.9,26.3,30.44,ENE,78,0.0,0.0,90,0.00,,,0.01,Wunderground v.1.15,2013-03-08 11:50:00,
2013-03-08 06:56:00,28.9,26.1,30.44,ENE,78,0.0,0.0,89,0.00,,,0.01,Wunderground v.1.15,2013-03-08 11:56:00,
2013-03-08 07:02:00,29.0,26.2,30.44,ENE,78,0.0,0.0,89,0.00,,,0.01,Wunderground v.1.15,2013-03-08 12:02:00,
2013-03-08 07:08:00,29.0,26.2,30.44,ENE,78,0.0,0.0,89,0.00,,,0.01,Wunderground v.1.15,2013-03-08 12:08:00,
2013-03-08 07:14:00,29.0,25.9,30.44,ENE,78,0.0,0.0,88,0.00,,,0.01,Wunderground v.1.15,2013-03-08 12:14:00,
2013-03-08 07:20:00,29.1,26.0,30.44,ENE,78,0.0,0.0,88,0.00,,,0.01,Wunderground v.1.15,2013-03-08 12:20:00,
2013-03-08 07:26:00,29.2,26.1,30.44,ENE,78,0.0,0.0,88,0.00,,,0.01,Wunderground v.1.15,2013-03-08 12:26:00,
2013-03-08 07:32:00,29.3,26.2,30.44,ENE,78,0.0,0.0,88,0.00,,,0.01,Wunderground v.1.15,2013-03-08 12:32:00,
2013-03-08 07:38:00,29.4,26.0,30.44,ENE,78,0.0,0.0,87,0.00,,,0.01,Wunderground v.1.15,2013-03-08 12:38:00,
2013-03-08 07:44:00,29.4,26.0,30.44,ENE,78,0.0,0.0,87,0.00,,,0.01,Wunderground v.1.15,2013-03-08 12:44:00,
2013-03-08 07:50:00,29.4,26.3,30.44,ENE,64,0.0,0.0,88,0.00,,,0.01,Wunderground v.1.15,2013-03-08 12:50:00,
2013-03-08 07:56:00,29.6,26.8,30.44,ENE,64,0.0,0.0,89,0.00,,,0.01,Wunderground v.1.15,2013-03-08 12:56:00,
2013-03-08 08:02:00,29.9,27.1,30.44,ENE,64,0.0,0.0,89,0.00,,,0.01,Wunderground v.1.15,2013-03-08 13:02:00,
2013-03-08 08:08:00,30.2,27.3,30.44,ENE,64,0.0,0.0,89,0.00,,,0.01,Wunderground v.1.15,2013-03-08 13:08:00,
2013-03-08 08:14:00,30.7,27.8,30.44,ENE,64,0.0,0.0,89,0.00,,,0.01,Wunderground v.1.15,2013-03-08 13:14:00,
2013-03-08 08:20:00,31.5,28.6,30.45,ENE,64,0.0,0.0,89,0.00,,,0.01,Wunderground v.1.15,2013-03-08 13:20:00,
2013-03-08 08:26:00,32.3,29.1,30.46,ENE,64,0.0,0.0,88,0.00,,,0.01,Wunderground v.1.15,2013-03-08 13:26:00,
2013-03-08 08:32:00,33.2,29.2,30.46,ENE,64,0.0,0.0,85,0.00,,,0.01,Wunderground v.1.15,2013-03-08 13:32:00,
2013-03-08 08:38:00,33.6,29.3,30.46,ENE,64,0.0,0.0,84,0.00,,,0.01,Wunderground v.1.15,2013-03-08 13:38:00,
2013-03-08 08:44:00,34.1,29.5,30.46,ENE,64,0.0,0.0,83,0.00,,,0.01,Wunderground v.1.15,2013-03-08 13:44:00,
2013-03-08 08:50:00,34.5,29.6,30.47,ENE,64,0.0,0.0,82,0.00,,,0.01,Wunderground v.1.15,2013-03-08 13:50:00,
2013-03-08 08:56:00,34.8,29.3,30.47,ENE,64,0.0,2.0,80,0.00,,,0.01,Wunderground v.1.15,2013-03-08 13:56:00,
2013-03-08 09:02:00,35.3,29.7,30.47,ENE,64,0.0,0.0,80,0.00,,,0.01,Wunderground v.1.15,2013-03-08 14:02:00,
2013-03-08 09:08:00,35.8,29.9,30.47,ENE,62,0.0,4.0,79,0.00,,,0.01,Wunderground v.1.15,2013-03-08 14:08:00,
2013-03-08 09:14:00,36.1,29.6,30.47,ENE,63,1.0,3.0,77,0.00,,,0.01,Wunderground v.1.15,2013-03-08 14:14:00,
2013-03-08 09:20:00,36.3,29.8,30.47,ENE,78,2.0,4.0,77,0.00,,,0.01,Wunderground v.1.15,2013-03-08 14:20:00,
2013-03-08 09:26:00,36.4,29.6,30.47,East,94,4.0,6.0,76,0.00,,,0.01,Wunderground v.1.15,2013-03-08 14:26:00,
2013-03-08 09:32:00,36.5,29.0,30.47,East,84,4.0,8.0,74,0.00,,,0.01,Wunderground v.1.15,2013-03-08 14:32:00,
2013-03-08 09:38:00,36.6,29.1,30.46,ENE,74,5.0,8.0,74,0.00,,,0.01,Wunderground v.1.15,2013-03-08 14:38:00,
2013-03-08 09:44:00,36.8,29.6,30.46,East,94,5.0,7.0,75,0.00,,,0.01,Wunderground v.1.15,2013-03-08 14:44:00,
2013-03-08 09:50:00,36.9,29.1,30.47,ENE,61,6.0,6.0,73,0.00,,,0.01,Wunderground v.1.15,2013-03-08 14:50:00,
2013-03-08 09:56:00,37.3,30.1,30.46,ENE,76,6.0,7.0,75,0.00,,,0.01,Wunderground v.1.15,2013-03-08 14:56:00,
2013-03-08 10:02:00,37.5,29.6,30.46,ESE,107,6.0,7.0,73,0.00,,,0.01,Wunderground v.1.15,2013-03-08 15:02:00,
2013-03-08 10:08:00,37.6,29.7,30.46,ENE,74,7.0,9.0,73,0.00,,,0.01,Wunderground v.1.15,2013-03-08 15:08:00,
2013-03-08 10:14:00,37.8,30.3,30.45,ENE,76,7.0,7.0,74,0.00,,,0.01,Wunderground v.1.15,2013-03-08 15:14:00,
2013-03-08 10:20:00,38.0,29.8,30.46,ESE,115,7.0,7.0,72,0.00,,,0.01,Wunderground v.1.15,2013-03-08 15:20:00,
2013-03-08 10:26:00,38.2,29.6,30.46,East,88,7.0,9.0,71,0.00,,,0.01,Wunderground v.1.15,2013-03-08 15:26:00,
2013-03-08 10:32:00,38.4,30.2,30.46,East,91,7.0,7.0,72,0.00,,,0.01,Wunderground v.1.15,2013-03-08 15:32:00,
2013-03-08 10:38:00,38.8,30.5,30.46,ENE,65,7.0,9.0,72,0.00,,,0.01,Wunderground v.1.15,2013-03-08 15:38:00,
2013-03-08 10:44:00,38.9,29.9,30.46,ENE,61,6.0,8.0,70,0.00,,,0.01,Wunderground v.1.15,2013-03-08 15:44:00,
2013-03-08 10:50:00,38.9,29.9,30.46,East,82,7.0,7.0,70,0.00,,,0.01,Wunderground v.1.15,2013-03-08 15:50:00,
2013-03-08 10:56:00,39.0,30.0,30.46,ESE,103,7.0,7.0,70,0.00,,,0.01,Wunderground v.1.15,2013-03-08 15:56:00,
2013-03-08 11:02:00,39.3,30.7,30.46,ESE,112,7.0,8.0,71,0.00,,,0.01,Wunderground v.1.15,2013-03-08 16:02:00,
2013-03-08 11:08:00,39.7,31.1,30.46,East,82,6.0,8.0,71,0.00,,,0.01,Wunderground v.1.15,2013-03-08 16:08:00,
2013-03-08 11:14:00,39.8,30.5,30.47,ENE,61,5.0,7.0,69,0.00,,,0.01,Wunderground v.1.15,2013-03-08 16:14:00,
2013-03-08 11:20:00,40.1,31.8,30.47,East,83,4.0,6.0,72,0.00,,,0.01,Wunderground v.1.15,2013-03-08 16:20:00,
2013-03-08 11:26:00,40.3,30.6,30.47,SE,138,4.0,7.0,68,0.00,,,0.01,Wunderground v.1.15,2013-03-08 16:26:00,
2013-03-08 11:32:00,40.5,31.1,30.47,East,92,3.0,4.0,69,0.00,,,0.01,Wunderground v.1.15,2013-03-08 16:32:00,
2013-03-08 11:38:00,40.8,31.4,30.47,ENE,77,2.0,4.0,69,0.00,,,0.01,Wunderground v.1.15,2013-03-08 16:38:00,
2013-03-08 11:44:00,41.1,31.7,30.47,ENE,67,4.0,5.0,69,0.00,,,0.01,Wunderground v.1.15,2013-03-08 16:44:00,
2013-03-08 11:50:00,41.5,32.4,30.47,East,84,5.0,5.0,70,0.00,,,0.01,Wunderground v.1.15,2013-03-08 16:50:00,
2013-03-08 11:56:00,41.6,31.4,30.47,East,101,3.0,5.0,67,0.00,,,0.01,Wunderground v.1.15,2013-03-08 16:56:00,
2013-03-08 12:02:00,41.8,31.3,30.47,NE,43,3.0,6.0,66,0.00,,,0.01,Wunderground v.1.15,2013-03-08 17:02:00,
2013-03-08 12:08:00,42.0,32.2,30.47,ENE,61,2.0,6.0,68,0.00,,,0.01,Wunderground v.1.15,2013-03-08 17:08:00,
2013-03-08 12:14:00,42.4,32.6,30.46,ESE,107,1.0,3.0,68,0.00,,,0.01,Wunderground v.1.15,2013-03-08 17:14:00,
2013-03-08 12:20:00,42.5,31.6,30.46,East,84,2.0,7.0,65,0.00,,,0.01,Wunderground v.1.15,2013-03-08 17:20:00,
2013-03-08 12:26:00,42.8,31.8,30.46,SE,128,3.0,7.0,65,0.00,,,0.01,Wunderground v.1.15,2013-03-08 17:26:00,
2013-03-08 12:32:00,43.0,32.4,30.46,SE,144,4.0,9.0,66,0.00,,,0.01,Wunderground v.1.15,2013-03-08 17:32:00,
2013-03-08 12:38:00,43.0,31.6,30.45,ESE,115,4.0,9.0,64,0.00,,,0.01,Wunderground v.1.15,2013-03-08 17:38:00,
2013-03-08 12:44:00,43.2,32.2,30.45,ESE,106,3.0,8.0,65,0.00,,,0.01,Wunderground v.1.15,2013-03-08 17:44:00,
2013-03-08 12:50:00,43.5,32.1,30.45,ENE,76,5.0,5.0,64,0.00,,,0.01,Wunderground v.1.15,2013-03-08 17:50:00,
2013-03-08 12:56:00,43.8,32.0,30.45,ENE,75,3.0,5.0,63,0.00,,,0.01,Wunderground v.1.15,2013-03-08 17:56:00,
2013-03-08 13:02:00,44.2,32.0,30.45,ENE,77,0.0,3.0,62,0.00,,,0.01,Wunderground v.1.15,2013-03-08 18:02:00,
2013-03-08 13:08:00,44.5,33.1,30.44,ESE,107,1.0,8.0,64,0.00,,,0.01,Wunderground v.1.15,2013-03-08 18:08:00,
2013-03-08 13:14:00,44.9,34.6,30.44,East,89,3.0,3.0,67,0.00,,,0.01,Wunderground v.1.15,2013-03-08 18:14:00,
2013-03-08 13:20:00,45.0,32.8,30.44,NE,53,3.0,3.0,62,0.00,,,0.01,Wunderground v.1.15,2013-03-08 18:20:00,
2013-03-08 13:26:00,45.1,32.8,30.43,SSE,154,2.0,6.0,62,0.00,,,0.01,Wunderground v.1.15,2013-03-08 18:26:00,
2013-03-08 13:32:00,45.2,31.7,30.42,SE,142,2.0,4.0,59,0.00,,,0.01,Wunderground v.1.15,2013-03-08 18:32:00,
2013-03-08 13:38:00,45.6,33.7,30.42,ENE,69,2.0,4.0,63,0.00,,,0.01,Wunderground v.1.15,2013-03-08 18:38:00,
2013-03-08 13:44:00,46.0,34.5,30.42,East,84,2.0,8.0,64,0.00,,,0.01,Wunderground v.1.15,2013-03-08 18:44:00,
2013-03-08 13:50:00,46.4,34.1,30.41,ENE,59,2.0,12.0,62,0.00,,,0.01,Wunderground v.1.15,2013-03-08 18:50:00,
2013-03-08 13:56:00,46.5,32.9,30.41,North,5,3.0,12.0,59,0.00,,,0.01,Wunderground v.1.15,2013-03-08 18:56:00,
2013-03-08 14:02:00,46.6,33.0,30.40,ENE,61,3.0,5.0,59,0.00,,,0.01,Wunderground v.1.15,2013-03-08 19:02:00,
2013-03-08 14:08:00,46.6,33.4,30.40,East,97,5.0,5.0,60,0.00,,,0.01,Wunderground v.1.15,2013-03-08 19:08:00,
2013-03-08 14:14:00,46.6,33.4,30.40,East,82,4.0,6.0,60,0.00,,,0.01,Wunderground v.1.15,2013-03-08 19:14:00,
2013-03-08 14:20:00,46.7,33.5,30.39,ESE,119,1.0,7.0,60,0.00,,,0.01,Wunderground v.1.15,2013-03-08 19:20:00,
2013-03-08 14:26:00,47.1,33.9,30.37,ESE,112,1.0,8.0,60,0.00,,,0.01,Wunderground v.1.15,2013-03-08 19:26:00,
2013-03-08 14:32:00,47.2,32.3,30.37,SE,133,3.0,4.0,56,0.00,,,0.01,Wunderground v.1.15,2013-03-08 19:32:00,
2013-03-08 14:38:00,47.3,33.3,30.37,East,96,3.0,7.0,58,0.00,,,0.01,Wunderground v.1.15,2013-03-08 19:38:00,
2013-03-08 14:44:00,47.6,33.5,30.36,ENE,69,5.0,8.0,58,0.00,,,0.01,Wunderground v.1.15,2013-03-08 19:44:00,
2013-03-08 14:50:00,47.7,33.6,30.36,ESE,109,5.0,5.0,58,0.00,,,0.01,Wunderground v.1.15,2013-03-08 19:50:00,
2013-03-08 14:56:00,47.8,33.3,30.36,NE,46,4.0,7.0,57,0.00,,,0.01,Wunderground v.1.15,2013-03-08 19:56:00,
2013-03-08 15:02:00,48.1,33.6,30.36,ESE,110,4.0,6.0,57,0.00,,,0.01,Wunderground v.1.15,2013-03-08 20:02:00,
2013-03-08 15:08:00,48.4,34.3,30.35,East,90,5.0,9.0,58,0.00,,,0.01,Wunderground v.1.15,2013-03-08 20:08:00,
2013-03-08 15:14:00,48.4,34.3,30.35,NE,42,6.0,7.0,58,0.00,,,0.01,Wunderground v.1.15,2013-03-08 20:14:00,
2013-03-08 15:20:00,48.5,33.5,30.35,East,91,4.0,4.0,56,0.00,,,0.01,Wunderground v.1.15,2013-03-08 20:20:00,
2013-03-08 15:26:00,48.7,34.1,30.35,ENE,78,3.0,6.0,57,0.00,,,0.01,Wunderground v.1.15,2013-03-08 20:26:00,
2013-03-08 15:32:00,48.7,33.7,30.35,ESE,115,6.0,7.0,56,0.00,,,0.01,Wunderground v.1.15,2013-03-08 20:32:00,
2013-03-08 15:38:00,48.8,33.3,30.35,ENE,78,6.0,12.0,55,0.00,,,0.01,Wunderground v.1.15,2013-03-08 20:38:00,
2013-03-08 15:44:00,48.8,34.2,30.35,ENE,61,6.0,6.0,57,0.00,,,0.01,Wunderground v.1.15,2013-03-08 20:44:00,
2013-03-08 15:50:00,49.3,33.8,30.35,East,94,3.0,5.0,55,0.00,,,0.01,Wunderground v.1.15,2013-03-08 20:50:00,
2013-03-08 15:56:00,49.3,33.8,30.35,East,94,5.0,7.0,55,0.00,,,0.01,Wunderground v.1.15,2013-03-08 20:56:00,
2013-03-08 16:02:00,49.0,32.1,30.34,ENE,78,6.0,7.0,52,0.00,,,0.01,Wunderground v.1.15,2013-03-08 21:02:00,
2013-03-08 16:08:00,49.0,33.1,30.34,ENE,78,4.0,9.0,54,0.00,,,0.01,Wunderground v.1.15,2013-03-08 21:08:00,
2013-03-08 16:14:00,49.0,32.6,30.35,ENE,69,5.0,7.0,53,0.00,,,0.01,Wunderground v.1.15,2013-03-08 21:14:00,
2013-03-08 16:20:00,49.0,34.0,30.34,East,81,5.0,6.0,56,0.00,,,0.01,Wunderground v.1.15,2013-03-08 21:20:00,
2013-03-08 16:26:00,48.9,33.9,30.34,East,94,6.0,7.0,56,0.00,,,0.01,Wunderground v.1.15,2013-03-08 21:26:00,
2013-03-08 16:32:00,49.1,33.2,30.33,ENE,71,5.0,7.0,54,0.00,,,0.01,Wunderground v.1.15,2013-03-08 21:32:00,
2013-03-08 16:38:00,49.2,33.3,30.33,ENE,66,5.0,8.0,54,0.00,,,0.01,Wunderground v.1.15,2013-03-08 21:38:00,
2013-03-08 16:44:00,49.2,34.2,30.33,ENE,61,6.0,6.0,56,0.00,,,0.01,Wunderground v.1.15,2013-03-08 21:44:00,
2013-03-08 16:50:00,49.2,32.8,30.33,East,84,6.0,8.0,53,0.00,,,0.01,Wunderground v.1.15,2013-03-08 21:50:00,
2013-03-08 16:56:00,49.0,32.6,30.33,NE,49,7.0,8.0,53,0.00,,,0.01,Wunderground v.1.15,2013-03-08 21:56:00,
2013-03-08 17:02:00,48.9,32.5,30.33,ESE,105,6.0,11.0,53,0.00,,,0.01,Wunderground v.1.15,2013-03-08 22:02:00,
2013-03-08 17:08:00,48.9,33.0,30.33,East,87,7.0,11.0,54,0.00,,,0.01,Wunderground v.1.15,2013-03-08 22:08:00,
2013-03-08 17:14:00,48.8,32.4,30.33,ENE,78,7.0,9.0,53,0.00,,,0.01,Wunderground v.1.15,2013-03-08 22:14:00,
2013-03-08 17:20:00,48.8,32.9,30.33,ENE,72,4.0,4.0,54,0.00,,,0.01,Wunderground v.1.15,2013-03-08 22:20:00,
2013-03-08 17:26:00,49.0,32.6,30.33,ENE,76,3.0,5.0,53,0.00,,,0.01,Wunderground v.1.15,2013-03-08 22:26:00,
2013-03-08 17:32:00,48.8,31.9,30.33,ESE,107,4.0,4.0,52,0.00,,,0.01,Wunderground v.1.15,2013-03-08 22:32:00,
2013-03-08 17:38:00,48.8,31.9,30.33,ENE,65,3.0,4.0,52,0.00,,,0.01,Wunderground v.1.15,2013-03-08 22:38:00,
2013-03-08 17:44:00,48.7,32.8,30.33,ENE,78,4.0,5.0,54,0.00,,,0.01,Wunderground v.1.15,2013-03-08 22:44:00,
2013-03-08 17:50:00,48.5,31.7,30.33,ENE,61,4.0,4.0,52,0.00,,,0.01,Wunderground v.1.15,2013-03-08 22:50:00,
2013-03-08 17:56:00,48.3,32.4,30.33,ENE,57,3.0,5.0,54,0.00,,,0.01,Wunderground v.1.15,2013-03-08 22:56:00,
2013-03-08 18:02:00,48.0,32.6,30.33,NE,52,3.0,4.0,55,0.00,,,0.01,Wunderground v.1.15,2013-03-08 23:02:00,
2013-03-08 18:08:00,47.7,33.2,30.33,ENE,69,3.0,7.0,57,0.00,,,0.01,Wunderground v.1.15,2013-03-08 23:08:00,
2013-03-08 18:14:00,47.3,31.0,30.33,ENE,74,4.0,4.0,53,0.00,,,0.01,Wunderground v.1.15,2013-03-08 23:14:00,
2013-03-08 18:20:00,47.2,31.4,30.34,ENE,69,4.0,4.0,54,0.00,,,0.01,Wunderground v.1.15,2013-03-08 23:20:00,
2013-03-08 18:26:00,47.0,31.7,30.34,ENE,69,2.0,4.0,55,0.00,,,0.01,Wunderground v.1.15,2013-03-08 23:26:00,
2013-03-08 18:32:00,46.7,31.4,30.35,ENE,69,1.0,1.0,55,0.00,,,0.01,Wunderground v.1.15,2013-03-08 23:32:00,
2013-03-08 18:38:00,46.5,31.2,30.34,ENE,69,1.0,3.0,55,0.00,,,0.01,Wunderground v.1.15,2013-03-08 23:38:00,
2013-03-08 18:44:00,46.1,31.3,30.33,ENE,64,2.0,4.0,56,0.00,,,0.01,Wunderground v.1.15,2013-03-08 23:44:00,
2013-03-08 18:50:00,45.6,30.8,30.33,ENE,64,4.0,4.0,56,0.00,,,0.01,Wunderground v.1.15,2013-03-08 23:50:00,
2013-03-08 18:56:00,45.2,30.9,30.34,ENE,64,3.0,4.0,57,0.00,,,0.01,Wunderground v.1.15,2013-03-08 23:56:00,
2013-03-08 19:02:00,45.0,30.7,30.33,ENE,64,1.0,1.0,57,0.00,,,0.01,Wunderground v.1.15,2013-03-09 00:02:00,
2013-03-08 19:08:00,44.7,30.8,30.33,ENE,64,1.0,2.0,58,0.00,,,0.01,Wunderground v.1.15,2013-03-09 00:08:00,
2013-03-08 19:14:00,44.5,30.6,30.33,ENE,64,1.0,2.0,58,0.00,,,0.01,Wunderground v.1.15,2013-03-09 00:14:00,
2013-03-08 19:20:00,44.3,30.4,30.33,ENE,64,1.0,1.0,58,0.00,,,0.01,Wunderground v.1.15,2013-03-09 00:20:00,
2013-03-08 19:26:00,43.9,30.5,30.33,ENE,64,1.0,3.0,59,0.00,,,0.01,Wunderground v.1.15,2013-03-09 00:26:00,
2013-03-08 19:32:00,43.8,30.4,30.33,ENE,64,0.0,1.0,59,0.00,,,0.01,Wunderground v.1.15,2013-03-09 00:32:00,
2013-03-08 19:38:00,43.6,30.6,30.33,ENE,64,0.0,3.0,60,0.00,,,0.01,Wunderground v.1.15,2013-03-09 00:38:00,
2013-03-08 19:44:00,43.3,30.3,30.33,ENE,64,1.0,3.0,60,0.00,,,0.01,Wunderground v.1.15,2013-03-09 00:44:00,
2013-03-08 19:50:00,43.1,30.1,30.34,ENE,64,0.0,1.0,60,0.00,,,0.01,Wunderground v.1.15,2013-03-09 00:50:00,
2013-03-08 19:56:00,43.1,30.1,30.35,ENE,64,0.0,1.0,60,0.00,,,0.01,Wunderground v.1.15,2013-03-09 00:56:00,
2013-03-08 20:02:00,43.1,30.6,30.34,ENE,64,0.0,1.0,61,0.00,,,0.01,Wunderground v.1.15,2013-03-09 01:02:00,
2013-03-08 20:08:00,43.0,30.1,30.35,ENE,64,1.0,1.0,60,0.00,,,0.01,Wunderground v.1.15,2013-03-09 01:08:00,
2013-03-08 20:14:00,42.9,30.0,30.35,ENE,64,0.0,0.0,60,0.00,,,0.01,Wunderground v.1.15,2013-03-09 01:14:00,
2013-03-08 20:20:00,42.6,30.1,30.35,ENE,64,0.0,0.0,61,0.00,,,0.01,Wunderground v.1.15,2013-03-09 01:20:00,
2013-03-08 20:26:00,42.3,29.8,30.35,ENE,64,0.0,0.0,61,0.00,,,0.01,Wunderground v.1.15,2013-03-09 01:26:00,
2013-03-08 20:32:00,42.1,30.4,30.35,ENE,64,0.0,0.0,63,0.00,,,0.01,Wunderground v.1.15,2013-03-09 01:32:00,
2013-03-08 20:38:00,41.8,30.1,30.35,ENE,64,0.0,1.0,63,0.00,,,0.01,Wunderground v.1.15,2013-03-09 01:38:00,
2013-03-08 20:44:00,41.5,30.2,30.35,ENE,64,0.0,0.0,64,0.00,,,0.01,Wunderground v.1.15,2013-03-09 01:44:00,
2013-03-08 20:50:00,41.3,30.4,30.35,ENE,64,0.0,0.0,65,0.00,,,0.01,Wunderground v.1.15,2013-03-09 01:50:00,
2013-03-08 20:56:00,41.0,30.5,30.34,ENE,64,0.0,2.0,66,0.00,,,0.01,Wunderground v.1.15,2013-03-09 01:56:00,
2013-03-08 21:02:00,40.6,30.1,30.35,ENE,64,1.0,1.0,66,0.00,,,0.01,Wunderground v.1.15,2013-03-09 02:02:00,
2013-03-08 21:08:00,40.5,30.0,30.34,ENE,64,0.0,1.0,66,0.00,,,0.01,Wunderground v.1.15,2013-03-09 02:08:00,
2013-03-08 21:14:00,40.6,30.1,30.35,ENE,64,0.0,1.0,66,0.00,,,0.01,Wunderground v.1.15,2013-03-09 02:14:00,
2013-03-08 21:20:00,40.6,30.1,30.34,ENE,64,0.0,0.0,66,0.00,,,0.01,Wunderground v.1.15,2013-03-09 02:20:00,
2013-03-08 21:26:00,40.5,30.0,30.35,ENE,64,0.0,1.0,66,0.00,,,0.01,Wunderground v.1.15,2013-03-09 02:26:00,
2013-03-08 21:32:00,40.4,29.9,30.35,ENE,64,0.0,0.0,66,0.00,,,0.01,Wunderground v.1.15,2013-03-09 02:32:00,
2013-03-08 21:38:00,40.3,29.8,30.35,ENE,64,0.0,0.0,66,0.00,,,0.01,Wunderground v.1.15,2013-03-09 02:38:00,
2013-03-08 21:44:00,40.2,29.7,30.34,ENE,64,0.0,2.0,66,0.00,,,0.01,Wunderground v.1.15,2013-03-09 02:44:00,
2013-03-08 21:50:00,40.2,29.7,30.34,ENE,64,1.0,2.0,66,0.00,,,0.01,Wunderground v.1.15,2013-03-09 02:50:00,
2013-03-08 21:56:00,40.2,30.1,30.34,ENE,64,1.0,2.0,67,0.00,,,0.01,Wunderground v.1.15,2013-03-09 02:56:00,
2013-03-08 22:02:00,40.1,30.0,30.34,ENE,64,0.0,0.0,67,0.00,,,0.01,Wunderground v.1.15,2013-03-09 03:02:00,
2013-03-08 22:08:00,40.0,29.9,30.34,ENE,64,0.0,4.0,67,0.00,,,0.01,Wunderground v.1.15,2013-03-09 03:08:00,
2013-03-08 22:14:00,39.8,30.1,30.34,ENE,64,2.0,3.0,68,0.00,,,0.01,Wunderground v.1.15,2013-03-09 03:14:00,
2013-03-08 22:20:00,39.6,30.3,30.34,ENE,64,1.0,1.0,69,0.00,,,0.01,Wunderground v.1.15,2013-03-09 03:20:00,
2013-03-08 22:26:00,39.2,29.9,30.33,ENE,64,1.0,3.0,69,0.00,,,0.01,Wunderground v.1.15,2013-03-09 03:26:00,
2013-03-08 22:32:00,39.2,29.9,30.33,ENE,64,1.0,2.0,69,0.00,,,0.01,Wunderground v.1.15,2013-03-09 03:32:00,
2013-03-08 22:38:00,39.2,29.9,30.33,ENE,64,1.0,2.0,69,0.00,,,0.01,Wunderground v.1.15,2013-03-09 03:38:00,
2013-03-08 22:44:00,39.3,30.0,30.33,ENE,64,1.0,4.0,69,0.00,,,0.01,Wunderground v.1.15,2013-03-09 03:44:00,
2013-03-08 22:50:00,39.3,30.0,30.33,ENE,64,2.0,2.0,69,0.00,,,0.01,Wunderground v.1.15,2013-03-09 03:50:00,
2013-03-08 22:56:00,39.2,30.2,30.33,ENE,64,2.0,3.0,70,0.00,,,0.01,Wunderground v.1.15,2013-03-09 03:56:00,
2013-03-08 23:02:00,39.1,30.1,30.32,ENE,64,2.0,3.0,70,0.00,,,0.01,Wunderground v.1.15,2013-03-09 04:02:00,
2013-03-08 23:08:00,38.8,29.8,30.32,East,84,2.0,6.0,70,0.00,,,0.01,Wunderground v.1.15,2013-03-09 04:08:00,
2013-03-08 23:14:00,38.6,30.0,30.32,East,88,3.0,3.0,71,0.00,,,0.01,Wunderground v.1.15,2013-03-09 04:14:00,
2013-03-08 23:20:00,38.5,29.9,30.32,East,88,2.0,2.0,71,0.00,,,0.01,Wunderground v.1.15,2013-03-09 04:20:00,
2013-03-08 23:26:00,38.4,29.8,30.32,East,88,1.0,2.0,71,0.00,,,0.01,Wunderground v.1.15,2013-03-09 04:26:00,
2013-03-08 23:32:00,38.3,30.1,30.32,East,90,2.0,5.0,72,0.00,,,0.01,Wunderground v.1.15,2013-03-09 04:32:00,
2013-03-08 23:38:00,38.3,30.1,30.31,East,86,3.0,5.0,72,0.00,,,0.01,Wunderground v.1.15,2013-03-09 04:38:00,
2013-03-08 23:44:00,38.3,30.1,30.31,East,97,3.0,5.0,72,0.00,,,0.01,Wunderground v.1.15,2013-03-09 04:44:00,
2013-03-08 23:50:00,38.3,30.1,30.32,East,92,2.0,2.0,72,0.00,,,0.01,Wunderground v.1.15,2013-03-09 04:50:00,
2013-03-08 23:56:00,38.2,30.0,30.31,East,83,2.0,5.0,72,0.00,,,0.01,Wunderground v.1.15,2013-03-09 04:56:00,